Index of /20260426/WXO-DD/model_gdps/15km/12/045
Name Last modified Size Description
Parent Directory -
20260426T12Z_MSC_GDPS_AbsoluteVorticity_IsbL-0200_LatLon0.15_PT045H.grib2 2026-04-26 16:12 1.2M
20260426T12Z_MSC_GDPS_AbsoluteVorticity_IsbL-0250_LatLon0.15_PT045H.grib2 2026-04-26 16:12 1.3M
20260426T12Z_MSC_GDPS_AbsoluteVorticity_IsbL-0500_LatLon0.15_PT045H.grib2 2026-04-26 16:12 1.4M
20260426T12Z_MSC_GDPS_AbsoluteVorticity_IsbL-0700_LatLon0.15_PT045H.grib2 2026-04-26 16:12 1.3M
20260426T12Z_MSC_GDPS_AbsoluteVorticity_IsbL-0850_LatLon0.15_PT045H.grib2 2026-04-26 16:12 1.6M
20260426T12Z_MSC_GDPS_AirTemp_AGL-120m_LatLon0.15_PT045H.grib2 2026-04-26 16:12 905K
20260426T12Z_MSC_GDPS_AirTemp_AGL-2m_LatLon0.15_PT045H.grib2 2026-04-26 16:12 1.0M
20260426T12Z_MSC_GDPS_AirTemp_AGL-40m_LatLon0.15_PT045H.grib2 2026-04-26 16:12 808K
20260426T12Z_MSC_GDPS_AirTemp_AGL-80m_LatLon0.15_PT045H.grib2 2026-04-26 16:12 914K
20260426T12Z_MSC_GDPS_AirTemp_IsbL-0001_LatLon0.15_PT045H.grib2 2026-04-26 16:12 650K
20260426T12Z_MSC_GDPS_AirTemp_IsbL-0005_LatLon0.15_PT045H.grib2 2026-04-26 16:12 688K
20260426T12Z_MSC_GDPS_AirTemp_IsbL-0010_LatLon0.15_PT045H.grib2 2026-04-26 16:12 761K
20260426T12Z_MSC_GDPS_AirTemp_IsbL-0020_LatLon0.15_PT045H.grib2 2026-04-26 16:12 790K
20260426T12Z_MSC_GDPS_AirTemp_IsbL-0030_LatLon0.15_PT045H.grib2 2026-04-26 16:12 751K
20260426T12Z_MSC_GDPS_AirTemp_IsbL-0050_LatLon0.15_PT045H.grib2 2026-04-26 16:12 807K
20260426T12Z_MSC_GDPS_AirTemp_IsbL-0100_LatLon0.15_PT045H.grib2 2026-04-26 16:12 1.0M
20260426T12Z_MSC_GDPS_AirTemp_IsbL-0150_LatLon0.15_PT045H.grib2 2026-04-26 16:12 973K
20260426T12Z_MSC_GDPS_AirTemp_IsbL-0175_LatLon0.15_PT045H.grib2 2026-04-26 16:12 959K
20260426T12Z_MSC_GDPS_AirTemp_IsbL-0200_LatLon0.15_PT045H.grib2 2026-04-26 16:12 970K
20260426T12Z_MSC_GDPS_AirTemp_IsbL-0225_LatLon0.15_PT045H.grib2 2026-04-26 16:12 1.0M
20260426T12Z_MSC_GDPS_AirTemp_IsbL-0250_LatLon0.15_PT045H.grib2 2026-04-26 16:12 1.0M
20260426T12Z_MSC_GDPS_AirTemp_IsbL-0275_LatLon0.15_PT045H.grib2 2026-04-26 16:12 1.0M
20260426T12Z_MSC_GDPS_AirTemp_IsbL-0300_LatLon0.15_PT045H.grib2 2026-04-26 16:12 1.0M
20260426T12Z_MSC_GDPS_AirTemp_IsbL-0350_LatLon0.15_PT045H.grib2 2026-04-26 16:12 932K
20260426T12Z_MSC_GDPS_AirTemp_IsbL-0400_LatLon0.15_PT045H.grib2 2026-04-26 16:12 940K
20260426T12Z_MSC_GDPS_AirTemp_IsbL-0450_LatLon0.15_PT045H.grib2 2026-04-26 16:12 960K
20260426T12Z_MSC_GDPS_AirTemp_IsbL-0500_LatLon0.15_PT045H.grib2 2026-04-26 16:12 1.0M
20260426T12Z_MSC_GDPS_AirTemp_IsbL-0550_LatLon0.15_PT045H.grib2 2026-04-26 16:12 797K
20260426T12Z_MSC_GDPS_AirTemp_IsbL-0600_LatLon0.15_PT045H.grib2 2026-04-26 16:12 890K
20260426T12Z_MSC_GDPS_AirTemp_IsbL-0650_LatLon0.15_PT045H.grib2 2026-04-26 16:12 917K
20260426T12Z_MSC_GDPS_AirTemp_IsbL-0700_LatLon0.15_PT045H.grib2 2026-04-26 16:12 951K
20260426T12Z_MSC_GDPS_AirTemp_IsbL-0750_LatLon0.15_PT045H.grib2 2026-04-26 16:12 1.0M
20260426T12Z_MSC_GDPS_AirTemp_IsbL-0800_LatLon0.15_PT045H.grib2 2026-04-26 16:12 1.1M
20260426T12Z_MSC_GDPS_AirTemp_IsbL-0850_LatLon0.15_PT045H.grib2 2026-04-26 16:12 1.1M
20260426T12Z_MSC_GDPS_AirTemp_IsbL-0875_LatLon0.15_PT045H.grib2 2026-04-26 16:12 1.2M
20260426T12Z_MSC_GDPS_AirTemp_IsbL-0900_LatLon0.15_PT045H.grib2 2026-04-26 16:12 1.1M
20260426T12Z_MSC_GDPS_AirTemp_IsbL-0925_LatLon0.15_PT045H.grib2 2026-04-26 16:12 1.1M
20260426T12Z_MSC_GDPS_AirTemp_IsbL-0950_LatLon0.15_PT045H.grib2 2026-04-26 16:12 1.1M
20260426T12Z_MSC_GDPS_AirTemp_IsbL-0970_LatLon0.15_PT045H.grib2 2026-04-26 16:12 1.2M
20260426T12Z_MSC_GDPS_AirTemp_IsbL-0985_LatLon0.15_PT045H.grib2 2026-04-26 16:12 1.1M
20260426T12Z_MSC_GDPS_AirTemp_IsbL-1000_LatLon0.15_PT045H.grib2 2026-04-26 16:12 1.1M
20260426T12Z_MSC_GDPS_AirTemp_IsbL-1015_LatLon0.15_PT045H.grib2 2026-04-26 16:12 1.1M
20260426T12Z_MSC_GDPS_Albedo_Sfc_LatLon0.15_PT045H.grib2 2026-04-26 16:12 244K
20260426T12Z_MSC_GDPS_CAPE_Sfc_LatLon0.15_PT045H.grib2 2026-04-26 16:12 3.9M
20260426T12Z_MSC_GDPS_CIN_Sfc_LatLon0.15_PT045H.grib2 2026-04-26 16:12 3.0M
20260426T12Z_MSC_GDPS_CloudWater_EAtm_LatLon0.15_PT045H.grib2 2026-04-26 16:12 530K
20260426T12Z_MSC_GDPS_ConvectivePrecip-Accum_Sfc_LatLon0.15_PT045H.grib2 2026-04-26 16:12 2.7M
20260426T12Z_MSC_GDPS_DewPointDepression_AGL-2m_LatLon0.15_PT045H.grib2 2026-04-26 16:12 757K
20260426T12Z_MSC_GDPS_DewPointDepression_IsbL-0010_LatLon0.15_PT045H.grib2 2026-04-26 16:12 60K
20260426T12Z_MSC_GDPS_DewPointDepression_IsbL-0020_LatLon0.15_PT045H.grib2 2026-04-26 16:12 82K
20260426T12Z_MSC_GDPS_DewPointDepression_IsbL-0030_LatLon0.15_PT045H.grib2 2026-04-26 16:12 70K
20260426T12Z_MSC_GDPS_DewPointDepression_IsbL-0050_LatLon0.15_PT045H.grib2 2026-04-26 16:12 331K
20260426T12Z_MSC_GDPS_DewPointDepression_IsbL-0100_LatLon0.15_PT045H.grib2 2026-04-26 16:12 411K
20260426T12Z_MSC_GDPS_DewPointDepression_IsbL-0150_LatLon0.15_PT045H.grib2 2026-04-26 16:12 464K
20260426T12Z_MSC_GDPS_DewPointDepression_IsbL-0175_LatLon0.15_PT045H.grib2 2026-04-26 16:12 561K
20260426T12Z_MSC_GDPS_DewPointDepression_IsbL-0200_LatLon0.15_PT045H.grib2 2026-04-26 16:12 661K
20260426T12Z_MSC_GDPS_DewPointDepression_IsbL-0225_LatLon0.15_PT045H.grib2 2026-04-26 16:12 768K
20260426T12Z_MSC_GDPS_DewPointDepression_IsbL-0250_LatLon0.15_PT045H.grib2 2026-04-26 16:12 860K
20260426T12Z_MSC_GDPS_DewPointDepression_IsbL-0275_LatLon0.15_PT045H.grib2 2026-04-26 16:12 886K
20260426T12Z_MSC_GDPS_DewPointDepression_IsbL-0300_LatLon0.15_PT045H.grib2 2026-04-26 16:12 931K
20260426T12Z_MSC_GDPS_DewPointDepression_IsbL-0350_LatLon0.15_PT045H.grib2 2026-04-26 16:12 958K
20260426T12Z_MSC_GDPS_DewPointDepression_IsbL-0400_LatLon0.15_PT045H.grib2 2026-04-26 16:12 1.0M
20260426T12Z_MSC_GDPS_DewPointDepression_IsbL-0450_LatLon0.15_PT045H.grib2 2026-04-26 16:12 1.0M
20260426T12Z_MSC_GDPS_DewPointDepression_IsbL-0500_LatLon0.15_PT045H.grib2 2026-04-26 16:12 1.0M
20260426T12Z_MSC_GDPS_DewPointDepression_IsbL-0550_LatLon0.15_PT045H.grib2 2026-04-26 16:12 1.0M
20260426T12Z_MSC_GDPS_DewPointDepression_IsbL-0600_LatLon0.15_PT045H.grib2 2026-04-26 16:12 1.1M
20260426T12Z_MSC_GDPS_DewPointDepression_IsbL-0650_LatLon0.15_PT045H.grib2 2026-04-26 16:12 1.1M
20260426T12Z_MSC_GDPS_DewPointDepression_IsbL-0700_LatLon0.15_PT045H.grib2 2026-04-26 16:12 1.1M
20260426T12Z_MSC_GDPS_DewPointDepression_IsbL-0750_LatLon0.15_PT045H.grib2 2026-04-26 16:12 1.1M
20260426T12Z_MSC_GDPS_DewPointDepression_IsbL-0800_LatLon0.15_PT045H.grib2 2026-04-26 16:12 1.2M
20260426T12Z_MSC_GDPS_DewPointDepression_IsbL-0850_LatLon0.15_PT045H.grib2 2026-04-26 16:12 1.2M
20260426T12Z_MSC_GDPS_DewPointDepression_IsbL-0875_LatLon0.15_PT045H.grib2 2026-04-26 16:12 1.1M
20260426T12Z_MSC_GDPS_DewPointDepression_IsbL-0900_LatLon0.15_PT045H.grib2 2026-04-26 16:12 1.1M
20260426T12Z_MSC_GDPS_DewPointDepression_IsbL-0925_LatLon0.15_PT045H.grib2 2026-04-26 16:12 1.0M
20260426T12Z_MSC_GDPS_DewPointDepression_IsbL-0950_LatLon0.15_PT045H.grib2 2026-04-26 16:12 1.0M
20260426T12Z_MSC_GDPS_DewPointDepression_IsbL-0970_LatLon0.15_PT045H.grib2 2026-04-26 16:12 1.0M
20260426T12Z_MSC_GDPS_DewPointDepression_IsbL-0985_LatLon0.15_PT045H.grib2 2026-04-26 16:12 1.0M
20260426T12Z_MSC_GDPS_DewPointDepression_IsbL-1000_LatLon0.15_PT045H.grib2 2026-04-26 16:12 969K
20260426T12Z_MSC_GDPS_DewPointDepression_IsbL-1015_LatLon0.15_PT045H.grib2 2026-04-26 16:12 914K
20260426T12Z_MSC_GDPS_DewPoint_AGL-2m_LatLon0.15_PT045H.grib2 2026-04-26 16:12 608K
20260426T12Z_MSC_GDPS_DownwardLongwaveRadiationFlux-Accum_Sfc_LatLon0.15_PT045H.grib2 2026-04-26 16:12 767K
20260426T12Z_MSC_GDPS_DownwardShortwaveRadiationFlux-Accum_NTAtm_LatLon0.15_PT045H.grib2 2026-04-26 16:12 269K
20260426T12Z_MSC_GDPS_DownwardShortwaveRadiationFlux-Accum_Sfc_LatLon0.15_PT045H.grib2 2026-04-26 16:12 1.0M
20260426T12Z_MSC_GDPS_FreezingRain-Accum1h_Sfc_LatLon0.15_PT045H.grib2 2026-04-26 16:12 45K
20260426T12Z_MSC_GDPS_FreezingRain-Accum3h_Sfc_LatLon0.15_PT045H.grib2 2026-04-26 16:12 49K
20260426T12Z_MSC_GDPS_FreezingRain-Accum_Sfc_LatLon0.15_PT045H.grib2 2026-04-26 16:12 235K
20260426T12Z_MSC_GDPS_GeopotentialHeight_IsbL-0001_LatLon0.15_PT045H.grib2 2026-04-26 16:12 384K
20260426T12Z_MSC_GDPS_GeopotentialHeight_IsbL-0005_LatLon0.15_PT045H.grib2 2026-04-26 16:12 498K
20260426T12Z_MSC_GDPS_GeopotentialHeight_IsbL-0010_LatLon0.15_PT045H.grib2 2026-04-26 16:12 484K
20260426T12Z_MSC_GDPS_GeopotentialHeight_IsbL-0020_LatLon0.15_PT045H.grib2 2026-04-26 16:12 427K
20260426T12Z_MSC_GDPS_GeopotentialHeight_IsbL-0030_LatLon0.15_PT045H.grib2 2026-04-26 16:12 585K
20260426T12Z_MSC_GDPS_GeopotentialHeight_IsbL-0050_LatLon0.15_PT045H.grib2 2026-04-26 16:12 580K
20260426T12Z_MSC_GDPS_GeopotentialHeight_IsbL-0100_LatLon0.15_PT045H.grib2 2026-04-26 16:12 614K
20260426T12Z_MSC_GDPS_GeopotentialHeight_IsbL-0150_LatLon0.15_PT045H.grib2 2026-04-26 16:12 633K
20260426T12Z_MSC_GDPS_GeopotentialHeight_IsbL-0175_LatLon0.15_PT045H.grib2 2026-04-26 16:12 637K
20260426T12Z_MSC_GDPS_GeopotentialHeight_IsbL-0200_LatLon0.15_PT045H.grib2 2026-04-26 16:12 642K
20260426T12Z_MSC_GDPS_GeopotentialHeight_IsbL-0225_LatLon0.15_PT045H.grib2 2026-04-26 16:12 645K
20260426T12Z_MSC_GDPS_GeopotentialHeight_IsbL-0250_LatLon0.15_PT045H.grib2 2026-04-26 16:12 647K
20260426T12Z_MSC_GDPS_GeopotentialHeight_IsbL-0275_LatLon0.15_PT045H.grib2 2026-04-26 16:12 644K
20260426T12Z_MSC_GDPS_GeopotentialHeight_IsbL-0300_LatLon0.15_PT045H.grib2 2026-04-26 16:12 637K
20260426T12Z_MSC_GDPS_GeopotentialHeight_IsbL-0350_LatLon0.15_PT045H.grib2 2026-04-26 16:12 636K
20260426T12Z_MSC_GDPS_GeopotentialHeight_IsbL-0400_LatLon0.15_PT045H.grib2 2026-04-26 16:12 626K
20260426T12Z_MSC_GDPS_GeopotentialHeight_IsbL-0450_LatLon0.15_PT045H.grib2 2026-04-26 16:12 615K
20260426T12Z_MSC_GDPS_GeopotentialHeight_IsbL-0500_LatLon0.15_PT045H.grib2 2026-04-26 16:12 605K
20260426T12Z_MSC_GDPS_GeopotentialHeight_IsbL-0550_LatLon0.15_PT045H.grib2 2026-04-26 16:12 528K
20260426T12Z_MSC_GDPS_GeopotentialHeight_IsbL-0600_LatLon0.15_PT045H.grib2 2026-04-26 16:12 522K
20260426T12Z_MSC_GDPS_GeopotentialHeight_IsbL-0650_LatLon0.15_PT045H.grib2 2026-04-26 16:12 522K
20260426T12Z_MSC_GDPS_GeopotentialHeight_IsbL-0700_LatLon0.15_PT045H.grib2 2026-04-26 16:12 685K
20260426T12Z_MSC_GDPS_GeopotentialHeight_IsbL-0750_LatLon0.15_PT045H.grib2 2026-04-26 16:12 694K
20260426T12Z_MSC_GDPS_GeopotentialHeight_IsbL-0800_LatLon0.15_PT045H.grib2 2026-04-26 16:12 703K
20260426T12Z_MSC_GDPS_GeopotentialHeight_IsbL-0850_LatLon0.15_PT045H.grib2 2026-04-26 16:12 708K
20260426T12Z_MSC_GDPS_GeopotentialHeight_IsbL-0875_LatLon0.15_PT045H.grib2 2026-04-26 16:12 716K
20260426T12Z_MSC_GDPS_GeopotentialHeight_IsbL-0900_LatLon0.15_PT045H.grib2 2026-04-26 16:12 723K
20260426T12Z_MSC_GDPS_GeopotentialHeight_IsbL-0925_LatLon0.15_PT045H.grib2 2026-04-26 16:12 731K
20260426T12Z_MSC_GDPS_GeopotentialHeight_IsbL-0950_LatLon0.15_PT045H.grib2 2026-04-26 16:12 738K
20260426T12Z_MSC_GDPS_GeopotentialHeight_IsbL-0970_LatLon0.15_PT045H.grib2 2026-04-26 16:12 749K
20260426T12Z_MSC_GDPS_GeopotentialHeight_IsbL-0985_LatLon0.15_PT045H.grib2 2026-04-26 16:12 766K
20260426T12Z_MSC_GDPS_GeopotentialHeight_IsbL-1000_LatLon0.15_PT045H.grib2 2026-04-26 16:12 788K
20260426T12Z_MSC_GDPS_GeopotentialHeight_IsbL-1015_LatLon0.15_PT045H.grib2 2026-04-26 16:12 806K
20260426T12Z_MSC_GDPS_Humidex_Sfc_LatLon0.15_PT045H.grib2 2026-04-26 16:12 5.3M
20260426T12Z_MSC_GDPS_IcePellets-Accum1h_Sfc_LatLon0.15_PT045H.grib2 2026-04-26 16:12 11K
20260426T12Z_MSC_GDPS_IcePellets-Accum3h_Sfc_LatLon0.15_PT045H.grib2 2026-04-26 16:12 14K
20260426T12Z_MSC_GDPS_IcePellets-Accum_Sfc_LatLon0.15_PT045H.grib2 2026-04-26 16:12 83K
20260426T12Z_MSC_GDPS_KIndex_Sfc_LatLon0.15_PT045H.grib2 2026-04-26 16:12 6.5M
20260426T12Z_MSC_GDPS_LatentHeatNetFlux_Sfc_LatLon0.15_PT045H.grib2 2026-04-26 16:12 724K
20260426T12Z_MSC_GDPS_LiftedIndex-MU-VT_IsbL-0500_LatLon0.15_PT045H.grib2 2026-04-26 16:12 5.4M
20260426T12Z_MSC_GDPS_NetLongwaveRadiationFlux-Accum_Sfc_LatLon0.15_PT045H.grib2 2026-04-26 16:12 1.1M
20260426T12Z_MSC_GDPS_NetShortwaveRadiationFlux-Accum_Sfc_LatLon0.15_PT045H.grib2 2026-04-26 16:12 1.0M
20260426T12Z_MSC_GDPS_O3MixingRatio_LatLon0.15_PT045H.grib2 2026-04-26 16:54 2.3M
20260426T12Z_MSC_GDPS_O3_EAtm_LatLon0.15_PT045H.grib2 2026-04-26 16:54 2.5M
20260426T12Z_MSC_GDPS_PlanetaryBoundaryLayerHeight_Sfc_LatLon0.15_PT045H.grib2 2026-04-26 16:12 2.5M
20260426T12Z_MSC_GDPS_Precip-Accum1h_Sfc_LatLon0.15_PT045H.grib2 2026-04-26 16:12 3.3M
20260426T12Z_MSC_GDPS_Precip-Accum3h_Sfc_LatLon0.15_PT045H.grib2 2026-04-26 16:12 3.6M
20260426T12Z_MSC_GDPS_Precip-Accum_Sfc_LatLon0.15_PT045H.grib2 2026-04-26 16:12 4.8M
20260426T12Z_MSC_GDPS_PrecipRate_Sfc_LatLon0.15_PT045H.grib2 2026-04-26 16:12 3.1M
20260426T12Z_MSC_GDPS_PrecipType-Instant_Sfc_LatLon0.15_PT045H.grib2 2026-04-26 16:12 1.6M
20260426T12Z_MSC_GDPS_Pressure_MSL_LatLon0.15_PT045H.grib2 2026-04-26 16:12 719K
20260426T12Z_MSC_GDPS_Pressure_PVU-1.5_LatLon0.15_PT045H.grib2 2026-04-26 16:12 5.8M
20260426T12Z_MSC_GDPS_Pressure_PVU-1_LatLon0.15_PT045H.grib2 2026-04-26 16:12 6.0M
20260426T12Z_MSC_GDPS_Pressure_PVU-2_LatLon0.15_PT045H.grib2 2026-04-26 16:12 5.6M
20260426T12Z_MSC_GDPS_Pressure_Sfc_LatLon0.15_PT045H.grib2 2026-04-26 16:12 1.1M
20260426T12Z_MSC_GDPS_RadiativeTemp_Sfc_LatLon0.15_PT045H.grib2 2026-04-26 16:12 499K
20260426T12Z_MSC_GDPS_Rain-Accum1h_Sfc_LatLon0.15_PT045H.grib2 2026-04-26 16:12 1.7M
20260426T12Z_MSC_GDPS_Rain-Accum3h_Sfc_LatLon0.15_PT045H.grib2 2026-04-26 16:12 1.7M
20260426T12Z_MSC_GDPS_Rain-Accum_Sfc_LatLon0.15_PT045H.grib2 2026-04-26 16:12 3.6M
20260426T12Z_MSC_GDPS_RelativeHumidity_AGL-2m_LatLon0.15_PT045H.grib2 2026-04-26 16:12 1.0M
20260426T12Z_MSC_GDPS_RelativeHumidity_IsbL-0010_LatLon0.15_PT045H.grib2 2026-04-26 16:12 273K
20260426T12Z_MSC_GDPS_RelativeHumidity_IsbL-0020_LatLon0.15_PT045H.grib2 2026-04-26 16:12 289K
20260426T12Z_MSC_GDPS_RelativeHumidity_IsbL-0030_LatLon0.15_PT045H.grib2 2026-04-26 16:12 352K
20260426T12Z_MSC_GDPS_RelativeHumidity_IsbL-0050_LatLon0.15_PT045H.grib2 2026-04-26 16:12 416K
20260426T12Z_MSC_GDPS_RelativeHumidity_IsbL-0100_LatLon0.15_PT045H.grib2 2026-04-26 16:12 512K
20260426T12Z_MSC_GDPS_RelativeHumidity_IsbL-0150_LatLon0.15_PT045H.grib2 2026-04-26 16:12 660K
20260426T12Z_MSC_GDPS_RelativeHumidity_IsbL-0175_LatLon0.15_PT045H.grib2 2026-04-26 16:12 788K
20260426T12Z_MSC_GDPS_RelativeHumidity_IsbL-0200_LatLon0.15_PT045H.grib2 2026-04-26 16:12 697K
20260426T12Z_MSC_GDPS_RelativeHumidity_IsbL-0225_LatLon0.15_PT045H.grib2 2026-04-26 16:12 781K
20260426T12Z_MSC_GDPS_RelativeHumidity_IsbL-0250_LatLon0.15_PT045H.grib2 2026-04-26 16:12 857K
20260426T12Z_MSC_GDPS_RelativeHumidity_IsbL-0275_LatLon0.15_PT045H.grib2 2026-04-26 16:12 885K
20260426T12Z_MSC_GDPS_RelativeHumidity_IsbL-0300_LatLon0.15_PT045H.grib2 2026-04-26 16:12 928K
20260426T12Z_MSC_GDPS_RelativeHumidity_IsbL-0350_LatLon0.15_PT045H.grib2 2026-04-26 16:12 948K
20260426T12Z_MSC_GDPS_RelativeHumidity_IsbL-0400_LatLon0.15_PT045H.grib2 2026-04-26 16:12 971K
20260426T12Z_MSC_GDPS_RelativeHumidity_IsbL-0450_LatLon0.15_PT045H.grib2 2026-04-26 16:12 1.0M
20260426T12Z_MSC_GDPS_RelativeHumidity_IsbL-0500_LatLon0.15_PT045H.grib2 2026-04-26 16:12 1.0M
20260426T12Z_MSC_GDPS_RelativeHumidity_IsbL-0550_LatLon0.15_PT045H.grib2 2026-04-26 16:12 1.0M
20260426T12Z_MSC_GDPS_RelativeHumidity_IsbL-0600_LatLon0.15_PT045H.grib2 2026-04-26 16:12 1.0M
20260426T12Z_MSC_GDPS_RelativeHumidity_IsbL-0650_LatLon0.15_PT045H.grib2 2026-04-26 16:12 1.1M
20260426T12Z_MSC_GDPS_RelativeHumidity_IsbL-0700_LatLon0.15_PT045H.grib2 2026-04-26 16:12 1.1M
20260426T12Z_MSC_GDPS_RelativeHumidity_IsbL-0750_LatLon0.15_PT045H.grib2 2026-04-26 16:12 1.2M
20260426T12Z_MSC_GDPS_RelativeHumidity_IsbL-0800_LatLon0.15_PT045H.grib2 2026-04-26 16:12 1.3M
20260426T12Z_MSC_GDPS_RelativeHumidity_IsbL-0850_LatLon0.15_PT045H.grib2 2026-04-26 16:12 1.3M
20260426T12Z_MSC_GDPS_RelativeHumidity_IsbL-0875_LatLon0.15_PT045H.grib2 2026-04-26 16:12 1.3M
20260426T12Z_MSC_GDPS_RelativeHumidity_IsbL-0900_LatLon0.15_PT045H.grib2 2026-04-26 16:12 1.2M
20260426T12Z_MSC_GDPS_RelativeHumidity_IsbL-0925_LatLon0.15_PT045H.grib2 2026-04-26 16:12 1.2M
20260426T12Z_MSC_GDPS_RelativeHumidity_IsbL-0950_LatLon0.15_PT045H.grib2 2026-04-26 16:12 1.2M
20260426T12Z_MSC_GDPS_RelativeHumidity_IsbL-0970_LatLon0.15_PT045H.grib2 2026-04-26 16:12 1.2M
20260426T12Z_MSC_GDPS_RelativeHumidity_IsbL-0985_LatLon0.15_PT045H.grib2 2026-04-26 16:12 1.1M
20260426T12Z_MSC_GDPS_RelativeHumidity_IsbL-1000_LatLon0.15_PT045H.grib2 2026-04-26 16:12 1.1M
20260426T12Z_MSC_GDPS_RelativeHumidity_IsbL-1015_LatLon0.15_PT045H.grib2 2026-04-26 16:12 1.0M
20260426T12Z_MSC_GDPS_RelativeVorticity_IsbL-0200_LatLon0.15_PT045H.grib2 2026-04-26 16:12 1.2M
20260426T12Z_MSC_GDPS_RelativeVorticity_IsbL-0250_LatLon0.15_PT045H.grib2 2026-04-26 16:12 1.6M
20260426T12Z_MSC_GDPS_RelativeVorticity_IsbL-0500_LatLon0.15_PT045H.grib2 2026-04-26 16:12 1.4M
20260426T12Z_MSC_GDPS_RelativeVorticity_IsbL-0700_LatLon0.15_PT045H.grib2 2026-04-26 16:12 1.3M
20260426T12Z_MSC_GDPS_RelativeVorticity_IsbL-0850_LatLon0.15_PT045H.grib2 2026-04-26 16:12 1.6M
20260426T12Z_MSC_GDPS_Runoff-Accum_Sfc_LatLon0.15_PT045H.grib2 2026-04-26 16:12 119K
20260426T12Z_MSC_GDPS_SensibleHeatNetFlux_Sfc_LatLon0.15_PT045H.grib2 2026-04-26 16:12 660K
20260426T12Z_MSC_GDPS_ShowalterIndex_IsbL-0500_LatLon0.15_PT045H.grib2 2026-04-26 16:12 6.2M
20260426T12Z_MSC_GDPS_Snow-Accum1h_Sfc_LatLon0.15_PT045H.grib2 2026-04-26 16:12 1.1M
20260426T12Z_MSC_GDPS_Snow-Accum3h_Sfc_LatLon0.15_PT045H.grib2 2026-04-26 16:12 1.1M
20260426T12Z_MSC_GDPS_Snow-Accum_Sfc_LatLon0.15_PT045H.grib2 2026-04-26 16:12 1.8M
20260426T12Z_MSC_GDPS_SnowDensity_Sfc_LatLon0.15_PT045H.grib2 2026-04-26 16:12 267K
20260426T12Z_MSC_GDPS_SnowDepth_Sfc_LatLon0.15_PT045H.grib2 2026-04-26 16:12 1.8M
20260426T12Z_MSC_GDPS_SoilTemp_DBS-0to10cm_LatLon0.15_PT045H.grib2 2026-04-26 16:12 502K
20260426T12Z_MSC_GDPS_SoilTemp_Sfc_LatLon0.15_PT045H.grib2 2026-04-26 16:12 579K
20260426T12Z_MSC_GDPS_SoilVolumetricIceContent_Sfc_LatLon0.15_PT045H.grib2 2026-04-26 16:12 212K
20260426T12Z_MSC_GDPS_SoilVolumetricWaterContent_DBS-0to10cm_LatLon0.15_PT045H.grib2 2026-04-26 16:12 576K
20260426T12Z_MSC_GDPS_SoilVolumetricWaterContent_DBS-0to1cm_LatLon0.15_PT045H.grib2 2026-04-26 16:12 654K
20260426T12Z_MSC_GDPS_SpecificHumidity_AGL-120m_LatLon0.15_PT045H.grib2 2026-04-26 16:12 1.1M
20260426T12Z_MSC_GDPS_SpecificHumidity_AGL-2m_LatLon0.15_PT045H.grib2 2026-04-26 16:12 1.2M
20260426T12Z_MSC_GDPS_SpecificHumidity_AGL-40m_LatLon0.15_PT045H.grib2 2026-04-26 16:12 1.1M
20260426T12Z_MSC_GDPS_SpecificHumidity_AGL-80m_LatLon0.15_PT045H.grib2 2026-04-26 16:12 1.1M
20260426T12Z_MSC_GDPS_SpecificHumidity_IsbL-0001_LatLon0.15_PT045H.grib2 2026-04-26 16:12 1.3M
20260426T12Z_MSC_GDPS_SpecificHumidity_IsbL-0005_LatLon0.15_PT045H.grib2 2026-04-26 16:12 1.2M
20260426T12Z_MSC_GDPS_SpecificHumidity_IsbL-0010_LatLon0.15_PT045H.grib2 2026-04-26 16:12 1.3M
20260426T12Z_MSC_GDPS_SpecificHumidity_IsbL-0020_LatLon0.15_PT045H.grib2 2026-04-26 16:12 1.4M
20260426T12Z_MSC_GDPS_SpecificHumidity_IsbL-0030_LatLon0.15_PT045H.grib2 2026-04-26 16:12 1.4M
20260426T12Z_MSC_GDPS_SpecificHumidity_IsbL-0050_LatLon0.15_PT045H.grib2 2026-04-26 16:12 1.7M
20260426T12Z_MSC_GDPS_SpecificHumidity_IsbL-0100_LatLon0.15_PT045H.grib2 2026-04-26 16:12 1.1M
20260426T12Z_MSC_GDPS_SpecificHumidity_IsbL-0150_LatLon0.15_PT045H.grib2 2026-04-26 16:12 1.2M
20260426T12Z_MSC_GDPS_SpecificHumidity_IsbL-0175_LatLon0.15_PT045H.grib2 2026-04-26 16:12 1.3M
20260426T12Z_MSC_GDPS_SpecificHumidity_IsbL-0200_LatLon0.15_PT045H.grib2 2026-04-26 16:12 1.3M
20260426T12Z_MSC_GDPS_SpecificHumidity_IsbL-0225_LatLon0.15_PT045H.grib2 2026-04-26 16:12 1.3M
20260426T12Z_MSC_GDPS_SpecificHumidity_IsbL-0250_LatLon0.15_PT045H.grib2 2026-04-26 16:12 1.4M
20260426T12Z_MSC_GDPS_SpecificHumidity_IsbL-0275_LatLon0.15_PT045H.grib2 2026-04-26 16:12 1.3M
20260426T12Z_MSC_GDPS_SpecificHumidity_IsbL-0300_LatLon0.15_PT045H.grib2 2026-04-26 16:12 1.5M
20260426T12Z_MSC_GDPS_SpecificHumidity_IsbL-0350_LatLon0.15_PT045H.grib2 2026-04-26 16:12 1.5M
20260426T12Z_MSC_GDPS_SpecificHumidity_IsbL-0400_LatLon0.15_PT045H.grib2 2026-04-26 16:12 1.4M
20260426T12Z_MSC_GDPS_SpecificHumidity_IsbL-0450_LatLon0.15_PT045H.grib2 2026-04-26 16:12 1.6M
20260426T12Z_MSC_GDPS_SpecificHumidity_IsbL-0500_LatLon0.15_PT045H.grib2 2026-04-26 16:12 1.4M
20260426T12Z_MSC_GDPS_SpecificHumidity_IsbL-0550_LatLon0.15_PT045H.grib2 2026-04-26 16:12 1.6M
20260426T12Z_MSC_GDPS_SpecificHumidity_IsbL-0600_LatLon0.15_PT045H.grib2 2026-04-26 16:12 1.7M
20260426T12Z_MSC_GDPS_SpecificHumidity_IsbL-0650_LatLon0.15_PT045H.grib2 2026-04-26 16:12 1.5M
20260426T12Z_MSC_GDPS_SpecificHumidity_IsbL-0700_LatLon0.15_PT045H.grib2 2026-04-26 16:12 1.6M
20260426T12Z_MSC_GDPS_SpecificHumidity_IsbL-0750_LatLon0.15_PT045H.grib2 2026-04-26 16:12 1.7M
20260426T12Z_MSC_GDPS_SpecificHumidity_IsbL-0800_LatLon0.15_PT045H.grib2 2026-04-26 16:12 1.8M
20260426T12Z_MSC_GDPS_SpecificHumidity_IsbL-0850_LatLon0.15_PT045H.grib2 2026-04-26 16:12 1.9M
20260426T12Z_MSC_GDPS_SpecificHumidity_IsbL-0875_LatLon0.15_PT045H.grib2 2026-04-26 16:12 1.9M
20260426T12Z_MSC_GDPS_SpecificHumidity_IsbL-0900_LatLon0.15_PT045H.grib2 2026-04-26 16:12 1.6M
20260426T12Z_MSC_GDPS_SpecificHumidity_IsbL-0925_LatLon0.15_PT045H.grib2 2026-04-26 16:12 1.6M
20260426T12Z_MSC_GDPS_SpecificHumidity_IsbL-0950_LatLon0.15_PT045H.grib2 2026-04-26 16:12 1.6M
20260426T12Z_MSC_GDPS_SpecificHumidity_IsbL-0970_LatLon0.15_PT045H.grib2 2026-04-26 16:12 1.5M
20260426T12Z_MSC_GDPS_SpecificHumidity_IsbL-0985_LatLon0.15_PT045H.grib2 2026-04-26 16:12 1.5M
20260426T12Z_MSC_GDPS_SpecificHumidity_IsbL-1000_LatLon0.15_PT045H.grib2 2026-04-26 16:12 1.5M
20260426T12Z_MSC_GDPS_SpecificHumidity_IsbL-1015_LatLon0.15_PT045H.grib2 2026-04-26 16:12 1.4M
20260426T12Z_MSC_GDPS_SpecificHumidity_Sfc_LatLon0.15_PT045H.grib2 2026-04-26 16:12 674K
20260426T12Z_MSC_GDPS_Thickness_IsbL-0850to0700_LatLon0.15_PT045H.grib2 2026-04-26 16:12 464K
20260426T12Z_MSC_GDPS_Thickness_IsbL-1000to0500_LatLon0.15_PT045H.grib2 2026-04-26 16:12 371K
20260426T12Z_MSC_GDPS_Thickness_IsbL-1000to0850_LatLon0.15_PT045H.grib2 2026-04-26 16:12 489K
20260426T12Z_MSC_GDPS_TotalCloudCover_Sfc_LatLon0.15_PT045H.grib2 2026-04-26 16:12 834K
20260426T12Z_MSC_GDPS_TotalTotalsIndex_Sfc_LatLon0.15_PT045H.grib2 2026-04-26 16:12 6.2M
20260426T12Z_MSC_GDPS_UVIndex-ClearSky_Sfc_LatLon0.15_PT045H.grib2 2026-04-26 16:54 1.1M
20260426T12Z_MSC_GDPS_UVIndex_Sfc_LatLon0.15_PT045H.grib2 2026-04-26 16:54 1.5M
20260426T12Z_MSC_GDPS_UpwardLongwaveRadiationFlux_NTAtm_LatLon0.15_PT045H.grib2 2026-04-26 16:12 841K
20260426T12Z_MSC_GDPS_VerticalVelocity_IsbL-0200_LatLon0.15_PT045H.grib2 2026-04-26 16:12 935K
20260426T12Z_MSC_GDPS_VerticalVelocity_IsbL-0250_LatLon0.15_PT045H.grib2 2026-04-26 16:12 1.0M
20260426T12Z_MSC_GDPS_VerticalVelocity_IsbL-0500_LatLon0.15_PT045H.grib2 2026-04-26 16:12 1.0M
20260426T12Z_MSC_GDPS_VerticalVelocity_IsbL-0600_LatLon0.15_PT045H.grib2 2026-04-26 16:12 1.1M
20260426T12Z_MSC_GDPS_VerticalVelocity_IsbL-0700_LatLon0.15_PT045H.grib2 2026-04-26 16:12 1.4M
20260426T12Z_MSC_GDPS_VerticalVelocity_IsbL-0850_LatLon0.15_PT045H.grib2 2026-04-26 16:12 1.6M
20260426T12Z_MSC_GDPS_WindChill_Sfc_LatLon0.15_PT045H.grib2 2026-04-26 16:12 5.3M
20260426T12Z_MSC_GDPS_WindDir_AGL-10m_LatLon0.15_PT045H.grib2 2026-04-26 16:12 1.3M
20260426T12Z_MSC_GDPS_WindDir_AGL-120m_LatLon0.15_PT045H.grib2 2026-04-26 16:12 1.3M
20260426T12Z_MSC_GDPS_WindDir_AGL-40m_LatLon0.15_PT045H.grib2 2026-04-26 16:12 1.4M
20260426T12Z_MSC_GDPS_WindDir_AGL-80m_LatLon0.15_PT045H.grib2 2026-04-26 16:12 1.4M
20260426T12Z_MSC_GDPS_WindDir_IsbL-0001_LatLon0.15_PT045H.grib2 2026-04-26 16:12 663K
20260426T12Z_MSC_GDPS_WindDir_IsbL-0005_LatLon0.15_PT045H.grib2 2026-04-26 16:12 800K
20260426T12Z_MSC_GDPS_WindDir_IsbL-0010_LatLon0.15_PT045H.grib2 2026-04-26 16:12 853K
20260426T12Z_MSC_GDPS_WindDir_IsbL-0020_LatLon0.15_PT045H.grib2 2026-04-26 16:12 941K
20260426T12Z_MSC_GDPS_WindDir_IsbL-0030_LatLon0.15_PT045H.grib2 2026-04-26 16:12 928K
20260426T12Z_MSC_GDPS_WindDir_IsbL-0050_LatLon0.15_PT045H.grib2 2026-04-26 16:12 950K
20260426T12Z_MSC_GDPS_WindDir_IsbL-0100_LatLon0.15_PT045H.grib2 2026-04-26 16:12 1.0M
20260426T12Z_MSC_GDPS_WindDir_IsbL-0150_LatLon0.15_PT045H.grib2 2026-04-26 16:12 1.0M
20260426T12Z_MSC_GDPS_WindDir_IsbL-0175_LatLon0.15_PT045H.grib2 2026-04-26 16:12 1.0M
20260426T12Z_MSC_GDPS_WindDir_IsbL-0200_LatLon0.15_PT045H.grib2 2026-04-26 16:12 1.1M
20260426T12Z_MSC_GDPS_WindDir_IsbL-0225_LatLon0.15_PT045H.grib2 2026-04-26 16:12 1.1M
20260426T12Z_MSC_GDPS_WindDir_IsbL-0250_LatLon0.15_PT045H.grib2 2026-04-26 16:12 1.1M
20260426T12Z_MSC_GDPS_WindDir_IsbL-0275_LatLon0.15_PT045H.grib2 2026-04-26 16:12 1.1M
20260426T12Z_MSC_GDPS_WindDir_IsbL-0300_LatLon0.15_PT045H.grib2 2026-04-26 16:12 1.1M
20260426T12Z_MSC_GDPS_WindDir_IsbL-0350_LatLon0.15_PT045H.grib2 2026-04-26 16:12 1.2M
20260426T12Z_MSC_GDPS_WindDir_IsbL-0400_LatLon0.15_PT045H.grib2 2026-04-26 16:12 1.2M
20260426T12Z_MSC_GDPS_WindDir_IsbL-0450_LatLon0.15_PT045H.grib2 2026-04-26 16:12 1.3M
20260426T12Z_MSC_GDPS_WindDir_IsbL-0500_LatLon0.15_PT045H.grib2 2026-04-26 16:12 1.3M
20260426T12Z_MSC_GDPS_WindDir_IsbL-0550_LatLon0.15_PT045H.grib2 2026-04-26 16:12 1.4M
20260426T12Z_MSC_GDPS_WindDir_IsbL-0600_LatLon0.15_PT045H.grib2 2026-04-26 16:12 1.4M
20260426T12Z_MSC_GDPS_WindDir_IsbL-0650_LatLon0.15_PT045H.grib2 2026-04-26 16:12 1.5M
20260426T12Z_MSC_GDPS_WindDir_IsbL-0700_LatLon0.15_PT045H.grib2 2026-04-26 16:12 1.6M
20260426T12Z_MSC_GDPS_WindDir_IsbL-0750_LatLon0.15_PT045H.grib2 2026-04-26 16:12 1.7M
20260426T12Z_MSC_GDPS_WindDir_IsbL-0800_LatLon0.15_PT045H.grib2 2026-04-26 16:12 1.8M
20260426T12Z_MSC_GDPS_WindDir_IsbL-0850_LatLon0.15_PT045H.grib2 2026-04-26 16:12 1.9M
20260426T12Z_MSC_GDPS_WindDir_IsbL-0875_LatLon0.15_PT045H.grib2 2026-04-26 16:12 1.9M
20260426T12Z_MSC_GDPS_WindDir_IsbL-0900_LatLon0.15_PT045H.grib2 2026-04-26 16:12 2.0M
20260426T12Z_MSC_GDPS_WindDir_IsbL-0925_LatLon0.15_PT045H.grib2 2026-04-26 16:12 2.0M
20260426T12Z_MSC_GDPS_WindDir_IsbL-0950_LatLon0.15_PT045H.grib2 2026-04-26 16:12 2.0M
20260426T12Z_MSC_GDPS_WindDir_IsbL-0970_LatLon0.15_PT045H.grib2 2026-04-26 16:12 2.0M
20260426T12Z_MSC_GDPS_WindDir_IsbL-0985_LatLon0.15_PT045H.grib2 2026-04-26 16:12 2.0M
20260426T12Z_MSC_GDPS_WindDir_IsbL-1000_LatLon0.15_PT045H.grib2 2026-04-26 16:12 2.0M
20260426T12Z_MSC_GDPS_WindDir_IsbL-1015_LatLon0.15_PT045H.grib2 2026-04-26 16:12 2.0M
20260426T12Z_MSC_GDPS_WindGust-Max_AGL-10m_LatLon0.15_PT045H.grib2 2026-04-26 16:12 2.2M
20260426T12Z_MSC_GDPS_WindGust-Min_AGL-10m_LatLon0.15_PT045H.grib2 2026-04-26 16:12 2.2M
20260426T12Z_MSC_GDPS_WindGust_AGL-10m_LatLon0.15_PT045H.grib2 2026-04-26 16:12 2.2M
20260426T12Z_MSC_GDPS_WindSpeed_AGL-10m_LatLon0.15_PT045H.grib2 2026-04-26 16:12 1.1M
20260426T12Z_MSC_GDPS_WindSpeed_AGL-120m_LatLon0.15_PT045H.grib2 2026-04-26 16:12 1.2M
20260426T12Z_MSC_GDPS_WindSpeed_AGL-40m_LatLon0.15_PT045H.grib2 2026-04-26 16:12 1.2M
20260426T12Z_MSC_GDPS_WindSpeed_AGL-80m_LatLon0.15_PT045H.grib2 2026-04-26 16:12 1.2M
20260426T12Z_MSC_GDPS_WindSpeed_IsbL-0001_LatLon0.15_PT045H.grib2 2026-04-26 16:12 646K
20260426T12Z_MSC_GDPS_WindSpeed_IsbL-0005_LatLon0.15_PT045H.grib2 2026-04-26 16:12 698K
20260426T12Z_MSC_GDPS_WindSpeed_IsbL-0010_LatLon0.15_PT045H.grib2 2026-04-26 16:12 632K
20260426T12Z_MSC_GDPS_WindSpeed_IsbL-0020_LatLon0.15_PT045H.grib2 2026-04-26 16:12 673K
20260426T12Z_MSC_GDPS_WindSpeed_IsbL-0030_LatLon0.15_PT045H.grib2 2026-04-26 16:12 865K
20260426T12Z_MSC_GDPS_WindSpeed_IsbL-0050_LatLon0.15_PT045H.grib2 2026-04-26 16:12 1.0M
20260426T12Z_MSC_GDPS_WindSpeed_IsbL-0100_LatLon0.15_PT045H.grib2 2026-04-26 16:12 1.1M
20260426T12Z_MSC_GDPS_WindSpeed_IsbL-0150_LatLon0.15_PT045H.grib2 2026-04-26 16:12 1.0M
20260426T12Z_MSC_GDPS_WindSpeed_IsbL-0175_LatLon0.15_PT045H.grib2 2026-04-26 16:12 1.0M
20260426T12Z_MSC_GDPS_WindSpeed_IsbL-0200_LatLon0.15_PT045H.grib2 2026-04-26 16:12 1.1M
20260426T12Z_MSC_GDPS_WindSpeed_IsbL-0225_LatLon0.15_PT045H.grib2 2026-04-26 16:12 1.1M
20260426T12Z_MSC_GDPS_WindSpeed_IsbL-0250_LatLon0.15_PT045H.grib2 2026-04-26 16:12 1.1M
20260426T12Z_MSC_GDPS_WindSpeed_IsbL-0275_LatLon0.15_PT045H.grib2 2026-04-26 16:12 1.1M
20260426T12Z_MSC_GDPS_WindSpeed_IsbL-0300_LatLon0.15_PT045H.grib2 2026-04-26 16:12 1.1M
20260426T12Z_MSC_GDPS_WindSpeed_IsbL-0350_LatLon0.15_PT045H.grib2 2026-04-26 16:12 1.1M
20260426T12Z_MSC_GDPS_WindSpeed_IsbL-0400_LatLon0.15_PT045H.grib2 2026-04-26 16:12 1.1M
20260426T12Z_MSC_GDPS_WindSpeed_IsbL-0450_LatLon0.15_PT045H.grib2 2026-04-26 16:12 1.1M
20260426T12Z_MSC_GDPS_WindSpeed_IsbL-0500_LatLon0.15_PT045H.grib2 2026-04-26 16:12 1.1M
20260426T12Z_MSC_GDPS_WindSpeed_IsbL-0550_LatLon0.15_PT045H.grib2 2026-04-26 16:12 1.1M
20260426T12Z_MSC_GDPS_WindSpeed_IsbL-0600_LatLon0.15_PT045H.grib2 2026-04-26 16:12 1.1M
20260426T12Z_MSC_GDPS_WindSpeed_IsbL-0650_LatLon0.15_PT045H.grib2 2026-04-26 16:12 1.4M
20260426T12Z_MSC_GDPS_WindSpeed_IsbL-0700_LatLon0.15_PT045H.grib2 2026-04-26 16:12 1.5M
20260426T12Z_MSC_GDPS_WindSpeed_IsbL-0750_LatLon0.15_PT045H.grib2 2026-04-26 16:12 1.5M
20260426T12Z_MSC_GDPS_WindSpeed_IsbL-0800_LatLon0.15_PT045H.grib2 2026-04-26 16:12 1.6M
20260426T12Z_MSC_GDPS_WindSpeed_IsbL-0850_LatLon0.15_PT045H.grib2 2026-04-26 16:12 1.7M
20260426T12Z_MSC_GDPS_WindSpeed_IsbL-0875_LatLon0.15_PT045H.grib2 2026-04-26 16:12 1.8M
20260426T12Z_MSC_GDPS_WindSpeed_IsbL-0900_LatLon0.15_PT045H.grib2 2026-04-26 16:12 1.8M
20260426T12Z_MSC_GDPS_WindSpeed_IsbL-0925_LatLon0.15_PT045H.grib2 2026-04-26 16:12 1.8M
20260426T12Z_MSC_GDPS_WindSpeed_IsbL-0950_LatLon0.15_PT045H.grib2 2026-04-26 16:12 1.9M
20260426T12Z_MSC_GDPS_WindSpeed_IsbL-0970_LatLon0.15_PT045H.grib2 2026-04-26 16:12 1.9M
20260426T12Z_MSC_GDPS_WindSpeed_IsbL-0985_LatLon0.15_PT045H.grib2 2026-04-26 16:12 1.9M
20260426T12Z_MSC_GDPS_WindSpeed_IsbL-1000_LatLon0.15_PT045H.grib2 2026-04-26 16:12 1.8M
20260426T12Z_MSC_GDPS_WindSpeed_IsbL-1015_LatLon0.15_PT045H.grib2 2026-04-26 16:12 1.8M
20260426T12Z_MSC_GDPS_WindU_AGL-10m_LatLon0.15_PT045H.grib2 2026-04-26 16:12 1.6M
20260426T12Z_MSC_GDPS_WindU_AGL-120m_LatLon0.15_PT045H.grib2 2026-04-26 16:12 968K
20260426T12Z_MSC_GDPS_WindU_AGL-40m_LatLon0.15_PT045H.grib2 2026-04-26 16:12 965K
20260426T12Z_MSC_GDPS_WindU_AGL-80m_LatLon0.15_PT045H.grib2 2026-04-26 16:12 969K
20260426T12Z_MSC_GDPS_WindU_IsbL-0001_LatLon0.15_PT045H.grib2 2026-04-26 16:12 503K
20260426T12Z_MSC_GDPS_WindU_IsbL-0005_LatLon0.15_PT045H.grib2 2026-04-26 16:12 696K
20260426T12Z_MSC_GDPS_WindU_IsbL-0010_LatLon0.15_PT045H.grib2 2026-04-26 16:12 708K
20260426T12Z_MSC_GDPS_WindU_IsbL-0020_LatLon0.15_PT045H.grib2 2026-04-26 16:12 739K
20260426T12Z_MSC_GDPS_WindU_IsbL-0030_LatLon0.15_PT045H.grib2 2026-04-26 16:12 741K
20260426T12Z_MSC_GDPS_WindU_IsbL-0050_LatLon0.15_PT045H.grib2 2026-04-26 16:12 698K
20260426T12Z_MSC_GDPS_WindU_IsbL-0100_LatLon0.15_PT045H.grib2 2026-04-26 16:12 920K
20260426T12Z_MSC_GDPS_WindU_IsbL-0150_LatLon0.15_PT045H.grib2 2026-04-26 16:12 1.0M
20260426T12Z_MSC_GDPS_WindU_IsbL-0175_LatLon0.15_PT045H.grib2 2026-04-26 16:12 1.0M
20260426T12Z_MSC_GDPS_WindU_IsbL-0200_LatLon0.15_PT045H.grib2 2026-04-26 16:12 1.1M
20260426T12Z_MSC_GDPS_WindU_IsbL-0225_LatLon0.15_PT045H.grib2 2026-04-26 16:12 854K
20260426T12Z_MSC_GDPS_WindU_IsbL-0250_LatLon0.15_PT045H.grib2 2026-04-26 16:12 855K
20260426T12Z_MSC_GDPS_WindU_IsbL-0275_LatLon0.15_PT045H.grib2 2026-04-26 16:12 880K
20260426T12Z_MSC_GDPS_WindU_IsbL-0300_LatLon0.15_PT045H.grib2 2026-04-26 16:12 872K
20260426T12Z_MSC_GDPS_WindU_IsbL-0350_LatLon0.15_PT045H.grib2 2026-04-26 16:12 888K
20260426T12Z_MSC_GDPS_WindU_IsbL-0400_LatLon0.15_PT045H.grib2 2026-04-26 16:12 889K
20260426T12Z_MSC_GDPS_WindU_IsbL-0450_LatLon0.15_PT045H.grib2 2026-04-26 16:12 1.1M
20260426T12Z_MSC_GDPS_WindU_IsbL-0500_LatLon0.15_PT045H.grib2 2026-04-26 16:12 1.1M
20260426T12Z_MSC_GDPS_WindU_IsbL-0550_LatLon0.15_PT045H.grib2 2026-04-26 16:12 1.1M
20260426T12Z_MSC_GDPS_WindU_IsbL-0600_LatLon0.15_PT045H.grib2 2026-04-26 16:12 1.1M
20260426T12Z_MSC_GDPS_WindU_IsbL-0650_LatLon0.15_PT045H.grib2 2026-04-26 16:12 1.2M
20260426T12Z_MSC_GDPS_WindU_IsbL-0700_LatLon0.15_PT045H.grib2 2026-04-26 16:12 1.2M
20260426T12Z_MSC_GDPS_WindU_IsbL-0750_LatLon0.15_PT045H.grib2 2026-04-26 16:12 1.2M
20260426T12Z_MSC_GDPS_WindU_IsbL-0800_LatLon0.15_PT045H.grib2 2026-04-26 16:12 1.3M
20260426T12Z_MSC_GDPS_WindU_IsbL-0850_LatLon0.15_PT045H.grib2 2026-04-26 16:12 1.4M
20260426T12Z_MSC_GDPS_WindU_IsbL-0875_LatLon0.15_PT045H.grib2 2026-04-26 16:12 1.4M
20260426T12Z_MSC_GDPS_WindU_IsbL-0900_LatLon0.15_PT045H.grib2 2026-04-26 16:12 1.5M
20260426T12Z_MSC_GDPS_WindU_IsbL-0925_LatLon0.15_PT045H.grib2 2026-04-26 16:12 1.4M
20260426T12Z_MSC_GDPS_WindU_IsbL-0950_LatLon0.15_PT045H.grib2 2026-04-26 16:12 1.4M
20260426T12Z_MSC_GDPS_WindU_IsbL-0970_LatLon0.15_PT045H.grib2 2026-04-26 16:12 1.4M
20260426T12Z_MSC_GDPS_WindU_IsbL-0985_LatLon0.15_PT045H.grib2 2026-04-26 16:12 1.4M
20260426T12Z_MSC_GDPS_WindU_IsbL-1000_LatLon0.15_PT045H.grib2 2026-04-26 16:12 1.4M
20260426T12Z_MSC_GDPS_WindU_IsbL-1015_LatLon0.15_PT045H.grib2 2026-04-26 16:12 1.6M
20260426T12Z_MSC_GDPS_WindV_AGL-10m_LatLon0.15_PT045H.grib2 2026-04-26 16:12 1.6M
20260426T12Z_MSC_GDPS_WindV_AGL-120m_LatLon0.15_PT045H.grib2 2026-04-26 16:12 971K
20260426T12Z_MSC_GDPS_WindV_AGL-40m_LatLon0.15_PT045H.grib2 2026-04-26 16:12 968K
20260426T12Z_MSC_GDPS_WindV_AGL-80m_LatLon0.15_PT045H.grib2 2026-04-26 16:12 972K
20260426T12Z_MSC_GDPS_WindV_IsbL-0001_LatLon0.15_PT045H.grib2 2026-04-26 16:12 711K
20260426T12Z_MSC_GDPS_WindV_IsbL-0005_LatLon0.15_PT045H.grib2 2026-04-26 16:12 858K
20260426T12Z_MSC_GDPS_WindV_IsbL-0010_LatLon0.15_PT045H.grib2 2026-04-26 16:12 887K
20260426T12Z_MSC_GDPS_WindV_IsbL-0020_LatLon0.15_PT045H.grib2 2026-04-26 16:12 852K
20260426T12Z_MSC_GDPS_WindV_IsbL-0030_LatLon0.15_PT045H.grib2 2026-04-26 16:12 854K
20260426T12Z_MSC_GDPS_WindV_IsbL-0050_LatLon0.15_PT045H.grib2 2026-04-26 16:12 905K
20260426T12Z_MSC_GDPS_WindV_IsbL-0100_LatLon0.15_PT045H.grib2 2026-04-26 16:12 852K
20260426T12Z_MSC_GDPS_WindV_IsbL-0150_LatLon0.15_PT045H.grib2 2026-04-26 16:12 1.0M
20260426T12Z_MSC_GDPS_WindV_IsbL-0175_LatLon0.15_PT045H.grib2 2026-04-26 16:12 1.0M
20260426T12Z_MSC_GDPS_WindV_IsbL-0200_LatLon0.15_PT045H.grib2 2026-04-26 16:12 842K
20260426T12Z_MSC_GDPS_WindV_IsbL-0225_LatLon0.15_PT045H.grib2 2026-04-26 16:12 849K
20260426T12Z_MSC_GDPS_WindV_IsbL-0250_LatLon0.15_PT045H.grib2 2026-04-26 16:12 849K
20260426T12Z_MSC_GDPS_WindV_IsbL-0275_LatLon0.15_PT045H.grib2 2026-04-26 16:12 875K
20260426T12Z_MSC_GDPS_WindV_IsbL-0300_LatLon0.15_PT045H.grib2 2026-04-26 16:12 865K
20260426T12Z_MSC_GDPS_WindV_IsbL-0350_LatLon0.15_PT045H.grib2 2026-04-26 16:12 879K
20260426T12Z_MSC_GDPS_WindV_IsbL-0400_LatLon0.15_PT045H.grib2 2026-04-26 16:12 878K
20260426T12Z_MSC_GDPS_WindV_IsbL-0450_LatLon0.15_PT045H.grib2 2026-04-26 16:12 1.1M
20260426T12Z_MSC_GDPS_WindV_IsbL-0500_LatLon0.15_PT045H.grib2 2026-04-26 16:12 1.1M
20260426T12Z_MSC_GDPS_WindV_IsbL-0550_LatLon0.15_PT045H.grib2 2026-04-26 16:12 1.1M
20260426T12Z_MSC_GDPS_WindV_IsbL-0600_LatLon0.15_PT045H.grib2 2026-04-26 16:12 1.1M
20260426T12Z_MSC_GDPS_WindV_IsbL-0650_LatLon0.15_PT045H.grib2 2026-04-26 16:12 1.2M
20260426T12Z_MSC_GDPS_WindV_IsbL-0700_LatLon0.15_PT045H.grib2 2026-04-26 16:12 1.2M
20260426T12Z_MSC_GDPS_WindV_IsbL-0750_LatLon0.15_PT045H.grib2 2026-04-26 16:12 1.3M
20260426T12Z_MSC_GDPS_WindV_IsbL-0800_LatLon0.15_PT045H.grib2 2026-04-26 16:12 1.3M
20260426T12Z_MSC_GDPS_WindV_IsbL-0850_LatLon0.15_PT045H.grib2 2026-04-26 16:12 1.4M
20260426T12Z_MSC_GDPS_WindV_IsbL-0875_LatLon0.15_PT045H.grib2 2026-04-26 16:12 1.4M
20260426T12Z_MSC_GDPS_WindV_IsbL-0900_LatLon0.15_PT045H.grib2 2026-04-26 16:12 1.4M
20260426T12Z_MSC_GDPS_WindV_IsbL-0925_LatLon0.15_PT045H.grib2 2026-04-26 16:12 1.4M
20260426T12Z_MSC_GDPS_WindV_IsbL-0950_LatLon0.15_PT045H.grib2 2026-04-26 16:12 1.4M
20260426T12Z_MSC_GDPS_WindV_IsbL-0970_LatLon0.15_PT045H.grib2 2026-04-26 16:12 1.4M
20260426T12Z_MSC_GDPS_WindV_IsbL-0985_LatLon0.15_PT045H.grib2 2026-04-26 16:12 1.4M
20260426T12Z_MSC_GDPS_WindV_IsbL-1000_LatLon0.15_PT045H.grib2 2026-04-26 16:12 1.4M
20260426T12Z_MSC_GDPS_WindV_IsbL-1015_LatLon0.15_PT045H.grib2 2026-04-26 16:12 1.4M